{"data":{"norad_id":46266,"intl_designator":"2020-059B","name":"GNOMES-1","alt_names":[],"object_type":"PAYLOAD","status":"ACTIVE","operator":null,"country":"US","launch_date":"2020-08-30","launch_site_code":"AFETR","launch_vehicle":null,"mission":null,"orbit_class":"UNKNOWN","rcs_meters":null,"size_class":null,"mass_kg":null,"dimensions":null,"purposes":[],"wikipedia_slug":null,"has_3d_model":false,"image_url":null,"decayed_at":null,"tle_current":{"epoch":"2026-09-19T19:37:30.864576Z","epoch_age_seconds":129024,"freshness":"FRESH","line1":"1 46266U 20059B   26262.81771834  .00001541  00000+0  12612-3 0  9992","line2":"2 46266  97.7968 113.4294 0011924  68.9358 291.3139 15.00782579329783","mean_motion":15.00782579,"eccentricity":0.0011924,"inclination_deg":97.7968,"raan_deg":113.4294,"arg_perigee_deg":68.9358,"mean_anomaly_deg":291.3139,"bstar":0.00012612,"rev_number":32978,"period_min":95.949941060716,"perigee_km":556.20344457934,"apogee_km":572.76020194906,"semimajor_km":6942.6188232642,"source":"CELESTRAK","updated_at":"2026-09-20T09:00:14.753318Z"}}}